ABS-4 (MOBISAT-1)

Last updated on Nov. 15, 2019, 4:20 a.m. UTC

1 28184U 04007A   19317.84997823  .00000055  00000-0  00000+0 0  9994
2 28184   0.0063  86.8355 0001789 177.6843 155.1476  1.00273782 57449
UTC
Height (km)
Latitude
Longitude
Inclination
Orbital Period
UTC large
Height (km)
Speed (km/s)
/
Latitude / Longitude
Inclination (degrees)
Orbital Period (minutes)
Azimuth
Elevation
Range (km)
Doppler Factor
iOS Compass Heading
iOS Angle

Next 30 passes for location: Hong Kong

Rise time Rise Azimuth (degrees) Set time Set Azimuth (degrees) Duration Max altitude (degrees)

No matching passes for this satellites